Location: Girdwood
(60.9430°N, 149.1660°W)
Time: 08:56:16
(UTC-08:00)

Iridium 86 - Visible Passes

Search period start: 25 September 2017 00:00
Search period end: 05 October 2017 00:00
Orbit: 776 x 779 km, 86.4° (Epoch: 25 September)

Date Brightness Start Highest point End Pass type
(mag) Time Alt. Az. Time Alt. Az. Time Alt. Az.
25 Sep 8.3 01:10:17 10° WNW 01:12:37 13° NW 01:14:58 10° NNW visible
25 Sep 6.3 21:11:42 10° SE 21:16:13 31° E 21:20:47 10° NNE visible
25 Sep 5.9 22:52:08 14° SSW 22:56:41 64° W 23:01:54 10° N visible
26 Sep 8.0 00:35:01 10° W 00:38:31 18° NW 00:42:03 10° NNW visible
26 Sep 6.8 20:39:06 10° ESE 20:43:00 22° ENE 20:46:54 10° NNE visible
26 Sep 5.4 22:18:16 12° S 22:23:05 87° E 22:28:21 10° N visible
27 Sep 7.6 00:00:16 10° WSW 00:04:32 25° WNW 00:08:49 10° N visible
27 Sep 8.5 06:57:01 10° NNE 06:59:32 13° NE 07:02:02 10° ENE visible
27 Sep 5.6 21:44:28 10° SSE 21:49:35 59° E 21:54:44 10° N visible
27 Sep 7.0 23:25:53 10° SW 23:30:39 35° WNW 23:35:27 10° N visible
28 Sep 8.5 01:12:04 10° NW 01:13:07 11° NW 01:14:10 10° NNW visible
28 Sep 6.0 21:11:23 10° SSE 21:16:11 39° E 21:21:02 10° NNE visible
28 Sep 6.3 22:51:48 10° SSW 22:56:52 50° WNW 23:01:59 10° N visible
29 Sep 8.3 00:36:04 10° W 00:38:57 15° NW 00:41:50 10° NNW visible
29 Sep 6.5 20:38:35 10° SE 20:42:54 27° ENE 20:47:14 10° NNE visible
29 Sep 5.7 22:17:59 10° SSW 22:23:12 75° W 22:28:28 10° N visible
30 Sep 7.9 00:01:03 10° WSW 00:04:54 20° WNW 00:08:45 10° N visible
30 Sep 8.4 06:56:43 10° NNE 06:59:59 16° NE 07:03:13 10° E visible
30 Sep 6.9 20:06:09 10° ESE 20:09:42 19° ENE 20:13:16 10° NNE visible
30 Sep 5.4 21:44:26 10° S 21:49:38 75° E 21:54:53 10° N visible
30 Sep 7.4 23:26:27 10° SW 23:30:56 28° WNW 23:35:27 10° N visible
01 Oct 8.6 06:23:59 10° NNE 06:25:50 12° NE 06:27:43 10° ENE visible
01 Oct 5.7 21:11:11 10° SSE 21:16:12 50° E 21:21:14 10° NNE visible
01 Oct 6.8 22:52:11 10° SW 22:57:06 40° WNW 23:02:02 10° N visible
02 Oct 8.4 00:37:25 10° WNW 00:39:25 12° NW 00:41:25 10° NNW visible
02 Oct 6.2 20:38:11 10° SE 20:42:50 34° E 20:47:31 10° NNE visible
02 Oct 6.1 22:18:12 10° SSW 22:23:22 59° WNW 22:28:33 10° N visible
03 Oct 8.2 00:01:59 10° W 00:05:17 17° NW 00:08:36 10° NNW visible
03 Oct 8.3 06:56:35 10° N 07:00:23 20° ENE 07:04:10 10° ESE visible
03 Oct 6.6 20:05:32 10° SE 20:09:35 23° ENE 20:13:39 10° NNE visible
03 Oct 5.5 21:44:30 10° S 21:49:45 87° W 21:55:01 10° N visible
03 Oct 7.8 23:27:09 10° WSW 23:31:16 23° WNW 23:35:25 10° N visible
04 Oct 8.5 06:23:31 10° NNE 06:26:19 14° NE 06:29:06 10° E visible
04 Oct 5.5 21:11:05 10° S 21:16:14 64° E 21:21:25 10° N visible
04 Oct 7.2 22:52:41 10° SW 22:57:22 32° WNW 23:02:04 10° N visible
